Weather History for Ft Lauderdale, FL

Change the Weather History Date:

Tuesday, November 13, 2012

  Actual Average Record
Temperature  
Mean Temperature 78 °F 76 °F  
Max Temperature 81 °F 82 °F 87 °F (1948)
Min Temperature 74 °F 70 °F 42 °F (1932)
Degree Days  
Heating Degree Days 0 0  
Month to date heating degree days 2 0  
Since 1 July heating degree days 2 0  
Cooling Degree Days 13 11  
Month to date cooling degree days 97 154  
Year to date cooling degree days 4254 4348  
Growing Degree Days 28 (Base 50)    
Moisture  
Dew Point 64 °F    
Average Humidity 64    
Maximum Humidity 74    
Minimum Humidity 54    
Precipitation  
Precipitation 0.00 in 0.10 in 2.39 in (1954)
Month to date precipitation 0.15 1.71  
Year to date precipitation 59.44 58.19  
Snow  
Snow 0.00 in - - ()
Month to date snowfall 0.0  
Since 1 July snowfall 0.0  
Since 1 September snowfall 0.0  
Snow Depth 0.00 in    
Sea Level Pressure  
Sea Level Pressure 30.09 in    
Wind  
Wind Speed 11 mph (ENE)    
Max Wind Speed 16 mph    
Max Gust Speed 21 mph    
Visibility 10 miles    
Events      
T = Trace of Precipitation, MM = Missing Value Source: NWS Daily Summary

Daily Weather History Graph

Daily Weather History Graph

Search for Another Location

Airport:

Trip Planner

Search our weather history database for the weather conditions in past years. The results will help you decide how hot, cold, wet, or windy it might be!

Date:

Astronomy

Nov. 13, 2012 Rise Set
Actual Time 6:37 AM EST 5:31 PM EST
Civil Twilight 6:13 AM EST 5:56 PM EST
Nautical Twilight 5:45 AM EST 6:23 PM EST
Astronomical Twilight 5:18 AM EST 6:51 PM EST
Moon 6:13 AM EST (11/13) 5:26 PM EST (11/13)
Length of Visible Light 11h 42m
Length of Day
10h 53m
Waning Crescent, 0% of the Moon is Illuminated
Nov 13
Waning Crescent
Nov 13
New
Nov 20
First Quarter
Nov 28
Full
Dec 6
Last Quarter

Hourly Weather History & Observations

Time (EST) Temp. Heat Index Dew Point Humidity Pressure Visibility Wind Dir Wind Speed Gust Speed Precip Events Conditions
12:53 AM 75.9 °F - 66.0 °F 71% 30.11 in 10.0 mi East 12.7 mph 19.6 mph N/A   Scattered Clouds
1:53 AM 75.9 °F - 64.9 °F 69% 30.08 in 10.0 mi East 9.2 mph - N/A   Scattered Clouds
2:53 AM 75.9 °F - 64.9 °F 69% 30.07 in 10.0 mi East 9.2 mph - N/A   Scattered Clouds
3:53 AM 75.0 °F - 64.9 °F 71% 30.07 in 10.0 mi East 10.4 mph - N/A   Scattered Clouds
4:53 AM 75.0 °F - 66.0 °F 73% 30.08 in 10.0 mi ENE 8.1 mph - N/A   Scattered Clouds
5:53 AM 75.0 °F - 64.0 °F 69% 30.09 in 10.0 mi ENE 9.2 mph - N/A   Partly Cloudy
6:53 AM 75.0 °F - 64.9 °F 71% 30.10 in 10.0 mi ENE 5.8 mph - N/A   Partly Cloudy
7:53 AM 77.0 °F - 64.0 °F 64% 30.12 in 10.0 mi ENE 11.5 mph - N/A   Scattered Clouds
8:53 AM 78.1 °F - 64.0 °F 62% 30.14 in 10.0 mi East 12.7 mph - N/A   Scattered Clouds
9:53 AM 78.1 °F - 64.0 °F 62% 30.14 in 10.0 mi ENE 12.7 mph - N/A   Partly Cloudy
10:53 AM 79.0 °F - 64.0 °F 60% 30.13 in 10.0 mi ENE 12.7 mph - N/A   Partly Cloudy
11:53 AM 79.0 °F - 63.0 °F 58% 30.10 in 10.0 mi ENE 11.5 mph - N/A   Partly Cloudy
12:53 PM 80.1 °F 81.5 °F 63.0 °F 56% 30.08 in 10.0 mi East 13.8 mph - N/A   Partly Cloudy
1:53 PM 79.0 °F - 64.0 °F 60% 30.06 in 10.0 mi ENE 12.7 mph - N/A   Partly Cloudy
2:53 PM 78.1 °F - 64.9 °F 64% 30.05 in 10.0 mi NE 13.8 mph - N/A   Partly Cloudy
3:53 PM 78.1 °F - 64.0 °F 62% 30.05 in 10.0 mi ENE 13.8 mph - N/A   Scattered Clouds
4:53 PM 78.1 °F - 64.0 °F 62% 30.06 in 10.0 mi ENE 9.2 mph - N/A   Scattered Clouds
5:53 PM 77.0 °F - 64.0 °F 64% 30.06 in 10.0 mi NE 10.4 mph - N/A   Scattered Clouds
6:53 PM 75.9 °F - 64.9 °F 69% 30.06 in 10.0 mi NE 9.2 mph - N/A   Scattered Clouds
7:53 PM 77.0 °F - 64.0 °F 64% 30.08 in 10.0 mi ENE 11.5 mph - N/A   Partly Cloudy
8:53 PM 77.0 °F - 63.0 °F 62% 30.08 in 10.0 mi ENE 12.7 mph - N/A   Scattered Clouds
9:53 PM 75.9 °F - 64.0 °F 67% 30.08 in 10.0 mi East 10.4 mph - N/A   Scattered Clouds
10:53 PM 75.9 °F - 64.0 °F 67% 30.08 in 10.0 mi ENE 9.2 mph - N/A   Partly Cloudy
11:53 PM 75.9 °F - 63.0 °F 64% 30.08 in 10.0 mi ENE 9.2 mph - N/A   Scattered Clouds